EW6926 Weather Reports


Display with metric or nautical units.
time (UTC)temp
F
wind
direction
speed
MPH
gust
MPH
rain 1hr
in
rain 24hr
in
rain mn
in
humidity
%
barometer
mb
20260504042005 47 278 0.0 1.0 0.00 0.00 0.00 61 1016.0
20260504041513 46 278 0.0 1.0 0.00 0.00 0.00 61 1016.1
20260504041005 47 278 0.0 0.0 0.00 0.00 0.00 61 1016.0
20260504040027 46 278 0.0 1.0 0.00 0.00 0.00 61 1016.1
20260504040008 47 278 0.0 1.0 0.00 0.00 0.00 61 1016.0
20260504035006 47 278 0.0 0.0 0.00 0.00 0.00 60 1016.0
20260504034542 47 278 0.0 0.0 0.00 0.00 0.00 60 1016.1
20260504034005 47 278 0.0 0.0 0.00 0.00 0.00 60 1016.0
20260504033052 47 278 0.0 0.0 0.00 0.00 0.00 59 1016.2
20260504033006 48 278 0.0 0.0 0.00 0.00 0.00 59 1016.1
20260504031504 48 278 0.0 0.0 0.00 0.00 0.00 57 1016.2
20260504031006 49 278 0.0 1.0 0.00 0.00 0.00 57 1016.1
20260504030016 48 278 0.0 1.0 0.00 0.00 0.00 57 1016.3
20260504030007 48 278 0.0 1.0 0.00 0.00 0.00 57 1016.2
20260504024529 48 278 0.0 0.0 0.00 0.00 0.00 57 1016.4
20260504024006 49 278 0.0 0.0 0.00 0.00 0.00 57 1016.2
20260504023042 49 278 0.0 0.0 0.00 0.00 0.00 56 1016.5
20260504022006 49 278 0.0 0.0 0.00 0.00 0.00 56 1016.4
20260504021555 49 278 0.0 0.0 0.00 0.00 0.00 55 1016.6
20260504020006 50 278 0.0 0.0 0.00 0.00 0.00 53 1016.5
20260504015005 50 278 0.0 0.0 0.00 0.00 0.00 53 1016.3
20260504014517 50 278 0.0 0.0 0.00 0.00 0.00 53 1016.4
20260504014005 51 278 0.0 0.0 0.00 0.00 0.00 53 1016.3
20260504013034 51 278 0.0 0.0 0.00 0.00 0.00 51 1016.4
20260504012005 52 278 0.0 0.0 0.00 0.00 0.00 50 1016.1
20260504011537 51 278 0.0 0.0 0.00 0.00 0.00 49 1016.3
20260504011005 52 278 0.0 0.0 0.00 0.00 0.00 49 1016.2
20260504010052 52 278 0.0 0.0 0.00 0.00 0.00 48 1016.3
20260504010006 52 278 0.0 0.0 0.00 0.00 0.00 48 1016.2
20260504005006 53 278 0.0 0.0 0.00 0.00 0.00 48 1016.2
20260504004602 52 278 0.0 0.0 0.00 0.00 0.00 47 1016.4
20260504004007 53 278 0.0 0.0 0.00 0.00 0.00 47 1016.2
20260504003014 53 278 0.0 1.0 0.00 0.00 0.00 47 1016.3
20260504003006 54 278 0.0 1.0 0.00 0.00 0.00 47 1016.1
20260504002006 54 278 0.0 2.0 0.00 0.00 0.00 46 1016.2
20260504001530 54 278 0.0 2.0 0.00 0.00 0.00 46 1016.3
20260504001005 55 250 0.0 2.0 0.00 0.00 0.00 45 1016.1
20260504000059 55 243 0.0 3.0 0.00 0.00 0.00 44 1016.2
20260504000006 55 243 0.0 3.0 0.00 0.00 0.00 43 1016.1
20260503235005 56 271 3.0 5.0 0.00 0.00 0.00 43 1016.2
20260503234557 55 255 1.0 6.0 0.00 0.00 0.00 42 1016.3
20260503234005 56 270 4.0 6.0 0.00 0.00 0.00 42 1016.2
20260503233104 56 265 2.0 8.0 0.00 0.00 0.00 41 1016.4
20260503233006 56 267 3.0 8.0 0.00 0.00 0.00 41 1016.3
20260503232005 57 253 2.0 9.0 0.00 0.00 0.00 40 1016.3
20260503231515 57 261 1.0 9.0 0.00 0.00 0.00 40 1016.4
20260503230033 58 250 2.0 12.0 0.00 0.00 0.00 39 1016.5
20260503225005 58 311 7.0 15.0 0.00 0.00 0.00 38 1016.4
20260503224542 58 275 6.0 15.0 0.00 0.00 0.00 38 1016.6
20260503224005 58 250 3.0 14.0 0.00 0.00 0.00 39 1016.4
20260503223057 58 266 7.0 12.0 0.00 0.00 0.00 39 1016.6
20260503222007 58 269 2.0 13.0 0.00 0.00 0.00 40 1016.5
20260503221505 57 254 5.0 13.0 0.00 0.00 0.00 39 1016.6
20260503221006 58 263 5.0 10.0 0.00 0.00 0.00 39 1016.6
20260503220021 57 284 4.0 8.0 0.00 0.00 0.00 40 1016.7
20260503215006 58 292 4.0 10.0 0.00 0.00 0.00 39 1016.5
20260503214536 58 275 1.0 8.0 0.00 0.00 0.00 39 1016.6
20260503213048 58 266 3.0 11.0 0.00 0.00 0.00 41 1016.4
20260503213005 58 276 1.0 8.0 0.00 0.00 0.00 41 1016.3
20260503212005 58 254 1.0 9.0 0.00 0.00 0.00 39 1016.4
20260503211620 58 302 4.0 12.0 0.00 0.00 0.00 39 1016.6
20260503211005 59 273 3.0 15.0 0.00 0.00 0.00 38 1016.5
20260503210009 57 257 5.0 10.0 0.00 0.00 0.00 40 1016.6
20260503210006 58 256 8.0 10.0 0.00 0.00 0.00 40 1016.5
20260503205006 58 300 3.0 12.0 0.00 0.00 0.00 38 1016.8
20260503204523 57 315 3.0 11.0 0.00 0.00 0.00 42 1016.8
20260503204005 57 255 4.0 11.0 0.00 0.00 0.00 40 1016.8
20260503203046 58 309 4.0 11.0 0.00 0.00 0.00 39 1017.0
20260503203005 58 253 2.0 11.0 0.00 0.00 0.00 39 1016.9
20260503202006 57 271 8.0 11.0 0.00 0.00 0.00 41 1017.1
20260503201547 57 292 3.0 12.0 0.00 0.00 0.00 41 1017.1
20260503200101 57 284 4.0 11.0 0.00 0.00 0.00 41 1017.3
20260503194513 57 261 3.0 13.0 0.00 0.00 0.00 40 1017.6
20260503194005 57 266 1.0 13.0 0.00 0.00 0.00 40 1017.6
20260503193022 56 274 5.0 14.0 0.00 0.00 0.00 40 1017.8
20260503192005 57 299 7.0 11.0 0.00 0.00 0.00 40 1017.9
20260503191537 56 240 3.0 12.0 0.00 0.00 0.00 42 1018.0
20260503191005 56 293 6.0 12.0 0.00 0.00 0.00 40 1018.0
20260503190049 57 271 5.0 11.0 0.00 0.00 0.00 42 1018.1
20260503190006 57 259 3.0 11.0 0.00 0.00 0.00 43 1018.0
20260503185005 57 214 5.0 10.0 0.00 0.00 0.00 41 1018.2
20260503184603 56 287 6.0 10.0 0.00 0.00 0.00 42 1018.4
20260503184005 57 336 8.0 10.0 0.00 0.00 0.00 41 1018.4
20260503183012 56 282 3.0 10.0 0.00 0.00 0.00 38 1018.6
20260503183005 56 297 3.0 10.0 0.00 0.00 0.00 38 1018.4
20260503181527 55 294 5.0 15.0 0.00 0.00 0.00 42 1018.7
20260503181005 55 9 4.0 12.0 0.00 0.00 0.00 41 1018.5
20260503180037 54 343 3.0 15.0 0.00 0.00 0.00 42 1018.9
20260503180006 55 295 4.0 15.0 0.00 0.00 0.00 43 1018.7
20260503175005 55 271 3.0 9.0 0.00 0.00 0.00 43 1018.7
20260503174552 54 253 2.0 8.0 0.00 0.00 0.00 42 1019.0
20260503173104 54 233 4.0 9.0 0.00 0.00 0.00 42 1019.1
20260503173005 54 260 4.0 9.0 0.00 0.00 0.00 42 1019.0
20260503172005 55 306 10.0 14.0 0.00 0.00 0.00 43 1019.2
20260503171515 54 302 3.0 11.0 0.00 0.00 0.00 45 1019.3
20260503151005 49 273 3.0 10.0 0.00 0.00 0.00 49 1020.4
20260503131010 43 324 4.0 8.0 0.00 0.00 0.00 73 1020.8
20260503110104 32 266 0.0 0.0 0.00 0.00 0.00 95 1020.1
20260503081522 36 290 1.0 3.0 0.00 0.00 0.00 86 1019.1
20260503081010 36 279 1.0 2.0 0.00 0.00 0.00 86 1019.0
20260503072005 36 296 0.0 0.0 0.00 0.00 0.00 88 1018.8
20260503071506 35 295 0.0 0.0 0.00 0.00 0.00 88 1018.9
20260503071005 36 296 0.0 0.0 0.00 0.00 0.00 88 1018.7
20260503055005 34 296 0.0 0.0 0.00 0.00 0.00 88 1018.8
20260503054519 34 295 0.0 0.0 0.00 0.00 0.00 88 1018.9
20260503054010 35 295 0.0 0.0 0.00 0.00 0.00 89 1018.8
20260503053034 34 295 0.0 0.0 0.00 0.00 0.00 89 1018.9
20260503053005 35 295 0.0 0.0 0.00 0.00 0.00 89 1018.8
20260503052005 35 296 0.0 0.0 0.00 0.00 0.00 88 1018.8
20260503051545 35 296 0.0 0.0 0.00 0.00 0.00 86 1019.0
20260503051005 36 295 0.0 0.0 0.00 0.00 0.00 85 1018.9
20260503050054 36 295 0.0 0.0 0.00 0.00 0.00 83 1019.1
20260503050006 36 295 0.0 0.0 0.00 0.00 0.00 83 1018.9
20260503045005 37 295 0.0 0.0 0.00 0.00 0.00 81 1018.9
20260503044504 37 295 0.0 0.0 0.00 0.00 0.00 80 1019.1
20260503044005 37 295 0.0 0.0 0.00 0.00 0.00 80 1018.9
20260503043018 37 295 0.0 0.0 0.00 0.00 0.00 80 1019.1